607  
ASUS43 KEAX 290905  
RWREAX  
 
WEATHER ROUNDUP FOR EASTERN KANSAS AND NORTHWEST MISSOURI  
NATIONAL WEATHER SERVICE KANSAS CITY/PLEASANT HILL MO  
300 AM CST MON NOV 29 2021  
 
KSZ040-057-103>105-MOZ028-029-037-043-291000-   
..KANSAS CITY METROPOLITAN AREA
 
 
 
CITY SKY/WX TMP DP RH WIND PRES REMARKS
 
K.C. INTL CLEAR 41 29 62 S13 30.03F WCI 34  
K.C. DOWNTOWN CLEAR 42 29 59 S5 30.05F  
LEES SUMMIT PTCLDY 42 30 62 S15 30.06F WCI 34  
OLATHE - IXD CLEAR 39 29 67 S10 30.06F WCI 32  
OLATHE - OJC CLEAR 41 30 65 S10 30.05F WCI 35  
LAWRENCE CLEAR 35 29 78 SE5 30.04F WCI 31  
 

 
 
MOZ001>008-011>017-020>025-030>033-038>040-044>046-053-054-291000-   
..NORTHERN AND CENTRAL MISSOURI
 
 
 
CITY SKY/WX TMP DP RH WIND PRES REMARKS
 
ST. JOSEPH PTCLDY 31 26 82 CALM 30.03F  
HARRISONVILLE PTCLDY 36 30 80 S3 30.12F  
WHITEMAN AFB NOT AVBL  
CLINTON N/A 36 28 75 S5 30.11F WCI 32  
SEDALIA CLEAR 34 27 75 S12 30.12F WCI 25  
MARSHALL PTCLDY 34 27 75 SE5 30.11F WCI 30  
CHILLICOTHE N/A 33 27 78 CALM 30.08F  
MOBERLY CLEAR 36 21 55 S7 30.12S WCI 30  
KIRKSVILLE PTCLDY 32 21 64 S9 30.08F WCI 24  
 

 
 
MOZ041-047>049-056>058-063>065-088>090-097-291000-   
..EASTERN AND SOUTHERN MISSOURI
 
 
 
CITY SKY/WX TMP DP RH WIND PRES REMARKS
 
ST. LOUIS INTL MOCLDY 38 20 48 S6 30.18F WCI 33  
SPIRIT OF STL PTCLDY 28 22 78 CALM 30.17F  
COLUMBIA CLEAR 33 23 66 S8 30.13F WCI 26  
JEFFERSON CITY CLEAR 30 23 75 E5 30.15F WCI 25  
MEXICO CLEAR 32 25 74 S6 30.14R WCI 26  
HANNIBAL PTCLDY 34 16 47 S6 30.13F WCI 29  
ROLLA CLEAR 34 22 61 S8 30.15F WCI 27  
LEBANON CLEAR 36 25 64 S5 30.16S WCI 32  
SPRINGFIELD PTCLDY 34 29 82 S7 30.14F WCI 28  
JOPLIN CLEAR 37 31 78 S9 30.14F WCI 30  
WEST PLAINS PTCLDY 32 24 72 CALM 30.18F  
SIKESTON CLEAR 32 27 80 CALM 30.22S  
 

 
 
IAZ060-094-KSZ022-034>040-054-083-096-NEZ052-066-093-291000-    
..KANSAS...SOUTHEAST NEBRASKA AND IOWA
 
 
 
CITY SKY/WX TMP DP RH WIND PRES REMARKS
 
TOPEKA CLEAR 42 29 59 SW3 30.04F  
MANHATTAN CLEAR 36 29 75 CALM 30.02F  
EMPORIA CLEAR 40 28 62 S10 30.04F WCI 33  
CHANUTE CLEAR 41 33 73 S9 30.10F  
SALINA CLEAR 39 30 70 S5 30.01F  
WICHITA CLEAR 35 29 78 S8 30.06F WCI 29  
OMAHA CLOUDY 35 28 75 S9 29.94F WCI 28  
LINCOLN PTCLDY 36 28 73 S5 29.95F WCI 32  
FALLS CITY PTCLDY 39 28 64 S7 29.98F WCI 34  
LAMONI PTCLDY 33 23 66 S9 30.00F WCI 25  
DES MOINES MOCLDY 34 22 61 S10 29.99F WCI 26  
 

 
 
 
 
CLICK HERE TO GO TO PREVIOUS BULLETINS.

The Nexlab MO Page
The Nexlab KS Page Main Text Page